Hourly Data Report for October 05, 2017

All times are specified in Local Standard Time (LST). Add 1 hour to adjust for Daylight Saving Time where and when it is observed.

KITCHENER/WATERLOO
ONTARIO

43°27'39.000" N
80°22'43.000" W
321.60 m
6144239
71368
YKF

Download Data

Hourly Data (October 2017)
Hourly Data Report for October 5, 2017
Temp Definition
°C
Dew Point Temp Definition
°C
Rel Hum Definition
%
Wind Dir Definition
10's deg

Wind Spd Definition
km/h
Visibility Definition
km
Stn Press Definition
kPa
Hmdx Definition


Wind Chill Definition


Weather Definition


TIME
00:00 Legend Double Dagger 11.2 11.1 99 21 8 2.8 98.39     Rain,Fog
01:00 Legend Double Dagger 9.6 9.5 99   0 0.4 98.38     Rain,Fog
02:00 Legend Double Dagger 9.0 8.9 99   0 0.4 98.36     Fog
03:00 Legend Double Dagger 7.2 7.2 100   0 0.8 98.36     Fog
04:00 Legend Double Dagger 6.3 6.3 100   0 0.4 98.37     Fog
05:00 Legend Double Dagger 6.0 6.0 100   0 0.4 98.36     Fog
06:00 Legend Double Dagger 5.2 5.2 100   0 0.6 98.34     Rain,Fog
07:00 Legend Double Dagger 5.5 5.5 100   0 0.4 98.35     Fog
08:00 Legend Double Dagger 10.2 10.2 100   0 16.1 98.35     LegendNANA
09:00 Legend Double Dagger 14.2 14.0 99 23 17 16.1 98.33     LegendNANA
10:00 Legend Double Dagger 16.7 11.9 73 24 24 16.1 98.30     LegendNANA
11:00 Legend Double Dagger 17.7 10.0 60 24 26 16.1 98.25     LegendNANA
12:00 Legend Double Dagger 19.0 8.7 51 26 22 16.1 98.18     LegendNANA
13:00 Legend Double Dagger 20.1 7.7 44 24 30 16.1 98.10     LegendNANA
14:00 Legend Double Dagger 20.8 7.5 42 26 24 16.1 98.06     LegendNANA
15:00 Legend Double Dagger 21.1 5.8 37 27 26 16.1 98.02     LegendNANA
16:00 Legend Double Dagger 20.9 6.5 39 26 22 16.1 97.99     LegendNANA
17:00 Legend Double Dagger 19.6 7.9 46 27 17 16.1 97.95     LegendNANA
18:00 Legend Double Dagger 16.4 10.1 66 27 8 16.1 97.99     LegendNANA
19:00 Legend Double Dagger 16.0 9.9 67 31 9 16.1 98.03     LegendNANA
20:00 Legend Double Dagger 16.4 9.1 62 28 11 16.1 98.05     LegendNANA
21:00 Legend Double Dagger 15.5 8.9 65 27 8 16.1 98.05     LegendNANA
22:00 Legend Double Dagger 14.2 9.0 71 25 4 16.1 98.07     LegendNANA
23:00 Legend Double Dagger 11.9 10.3 90   0 16.1 98.02     LegendNANA

Notes on Data Quality.

Legend

  • E = Estimated
  • M = Missing
  • NA = Not Available
  • ‡ = Partner data that is not subject to review by the National Climate Archives
Date modified: